| time (UTC) | temp C | wind direction | speed KPH | gust KPH | rain 1hr cm | rain 24hr cm | rain mn cm | humidity % | barometer mb |
| 20260506230903 | 14 | 225 | 1.6 | 17.7 | 0.05 | 0.33 | 0.33 | 94 | 1005.1 |
| 20260506230003 | 14 | 168 | 1.6 | 9.7 | 0.05 | 0.33 | 0.33 | 94 | 1005.0 |
| 20260506225403 | 14 | 216 | 3.2 | 12.9 | 0.05 | 0.33 | 0.33 | 93 | 1005.1 |
| 20260506224503 | 14 | 209 | 3.2 | 16.1 | 0.03 | 0.30 | 0.30 | 93 | 1005.2 |
| 20260506223603 | 14 | 219 | 3.2 | 16.1 | 0.00 | 0.28 | 0.28 | 93 | 1005.0 |
| 20260506222703 | 14 | 212 | 1.6 | 17.7 | 0.00 | 0.28 | 0.28 | 93 | 1005.2 |
| 20260506221824 | 14 | 222 | 3.2 | 17.7 | 0.03 | 0.28 | 0.28 | 93 | 1005.1 |
| 20260506220924 | 14 | 201 | 1.6 | 14.5 | 0.03 | 0.28 | 0.28 | 93 | 1005.2 |
| 20260506220024 | 15 | 164 | 1.6 | 12.9 | 0.05 | 0.28 | 0.28 | 93 | 1005.3 |
| 20260506215424 | 15 | 193 | 1.6 | 12.9 | 0.05 | 0.28 | 0.28 | 93 | 1005.4 |
| 20260506213603 | 15 | 208 | 3.2 | 17.7 | 0.05 | 0.28 | 0.28 | 93 | 1005.4 |
| 20260506212703 | 15 | 197 | 3.2 | 17.7 | 0.08 | 0.28 | 0.28 | 93 | 1005.4 |
| 20260506211803 | 15 | 171 | 4.8 | 14.5 | 0.08 | 0.25 | 0.25 | 93 | 1005.7 |
| 20260506210903 | 15 | 189 | 4.8 | 14.5 | 0.08 | 0.25 | 0.25 | 93 | 1005.8 |
| 20260506210024 | 15 | 168 | 4.8 | 17.7 | 0.05 | 0.23 | 0.23 | 93 | 1005.8 |
| 20260506205403 | 15 | 178 | 4.8 | 17.7 | 0.05 | 0.23 | 0.23 | 92 | 1005.8 |
| 20260506204503 | 15 | 197 | 4.8 | 19.3 | 0.05 | 0.23 | 0.23 | 93 | 1005.9 |
| 20260506203603 | 15 | 180 | 3.2 | 19.3 | 0.05 | 0.23 | 0.23 | 92 | 1005.8 |
| 20260506202703 | 15 | 159 | 4.8 | 16.1 | 0.05 | 0.20 | 0.20 | 92 | 1005.9 |
| 20260506201803 | 15 | 177 | 4.8 | 29.0 | 0.03 | 0.18 | 0.18 | 92 | 1006.0 |
| 20260506200903 | 15 | 227 | 3.2 | 22.5 | 0.05 | 0.18 | 0.18 | 91 | 1006.1 |
| 20260506200004 | 15 | 192 | 8.0 | 19.3 | 0.08 | 0.18 | 0.18 | 90 | 1006.2 |
| 20260506195403 | 15 | 185 | 6.4 | 19.3 | 0.10 | 0.18 | 0.18 | 90 | 1006.3 |
| 20260506194503 | 15 | 171 | 4.8 | 16.1 | 0.13 | 0.18 | 0.18 | 90 | 1006.2 |
| 20260506193603 | 15 | 212 | 4.8 | 17.7 | 0.15 | 0.18 | 0.18 | 91 | 1006.3 |
| 20260506192703 | 15 | 190 | 3.2 | 14.5 | 0.13 | 0.15 | 0.15 | 91 | 1006.3 |
| 20260506191824 | 15 | 188 | 4.8 | 17.7 | 0.15 | 0.15 | 0.15 | 89 | 1006.3 |
| 20260506190903 | 15 | 191 | 4.8 | 17.7 | 0.13 | 0.13 | 0.13 | 88 | 1006.4 |
| 20260506190003 | 16 | 190 | 3.2 | 17.7 | 0.10 | 0.10 | 0.10 | 87 | 1006.6 |
| 20260506185403 | 16 | 190 | 3.2 | 17.7 | 0.08 | 0.08 | 0.08 | 86 | 1006.5 |
| 20260506184503 | 17 | 188 | 1.6 | 12.9 | 0.05 | 0.05 | 0.05 | 85 | 1006.6 |
| 20260506183624 | 17 | 188 | 4.8 | 17.7 | 0.03 | 0.03 | 0.03 | 82 | 1006.8 |
| 20260506182703 | 17 | 159 | 4.8 | 17.7 | 0.03 | 0.03 | 0.03 | 79 | 1006.8 |
| 20260506181803 | 18 | 182 | 3.2 | 14.5 | 0.00 | 0.00 | 0.00 | 78 | 1006.9 |
| 20260506180903 | 18 | 191 | 4.8 | 17.7 | 0.00 | 0.00 | 0.00 | 75 | 1007.0 |
| 20260506180004 | 18 | 174 | 4.8 | 24.1 | 0.00 | 0.00 | 0.00 | 71 | 1007.0 |
| 20260506175403 | 19 | 186 | 8.0 | 24.1 | 0.00 | 0.00 | 0.00 | 71 | 1007.0 |
| 20260506174503 | 20 | 182 | 9.7 | 20.9 | 0.00 | 0.00 | 0.00 | 68 | 1007.2 |
| 20260506173603 | 20 | 179 | 12.9 | 27.4 | 0.00 | 0.00 | 0.00 | 65 | 1007.2 |
| 20260506172703 | 21 | 226 | 9.7 | 25.7 | 0.00 | 0.00 | 0.00 | 63 | 1007.0 |
| 20260506171824 | 21 | 181 | 12.9 | 40.2 | 0.00 | 0.00 | 0.00 | 62 | 1007.0 |
| 20260506170903 | 21 | 175 | 11.3 | 29.0 | 0.00 | 0.00 | 0.00 | 62 | 1007.2 |
| 20260506170004 | 21 | 188 | 9.7 | 38.6 | 0.00 | 0.00 | 0.00 | 61 | 1007.0 |
| 20260506165403 | 21 | 182 | 9.7 | 38.6 | 0.00 | 0.00 | 0.00 | 62 | 1007.1 |
| 20260506164503 | 21 | 171 | 12.9 | 33.8 | 0.00 | 0.00 | 0.00 | 61 | 1007.2 |
| 20260506163603 | 21 | 165 | 9.7 | 20.9 | 0.00 | 0.00 | 0.00 | 63 | 1007.2 |
| 20260506162703 | 21 | 176 | 12.9 | 30.6 | 0.00 | 0.00 | 0.00 | 63 | 1007.5 |
| 20260506161824 | 21 | 200 | 8.0 | 30.6 | 0.00 | 0.00 | 0.00 | 61 | 1007.6 |
| 20260506160924 | 21 | 207 | 6.4 | 25.7 | 0.00 | 0.00 | 0.00 | 62 | 1007.6 |
| 20260506160003 | 21 | 206 | 9.7 | 32.2 | 0.00 | 0.00 | 0.00 | 62 | 1007.8 |
| 20260506155403 | 21 | 173 | 9.7 | 32.2 | 0.00 | 0.00 | 0.00 | 61 | 1007.7 |
| 20260506154503 | 21 | 182 | 8.0 | 29.0 | 0.00 | 0.00 | 0.00 | 62 | 1007.8 |
| 20260506153603 | 21 | 194 | 6.4 | 30.6 | 0.00 | 0.00 | 0.00 | 62 | 1007.9 |
| 20260506152703 | 21 | 186 | 6.4 | 22.5 | 0.00 | 0.00 | 0.00 | 64 | 1008.1 |
| 20260506151803 | 21 | 201 | 9.7 | 29.0 | 0.00 | 0.00 | 0.00 | 64 | 1008.1 |
| 20260506150924 | 20 | 201 | 11.3 | 30.6 | 0.00 | 0.00 | 0.00 | 65 | 1008.3 |
| 20260506150003 | 20 | 197 | 6.4 | 17.7 | 0.00 | 0.00 | 0.00 | 67 | 1008.4 |
| 20260506145403 | 20 | 195 | 9.7 | 27.4 | 0.00 | 0.00 | 0.00 | 68 | 1008.5 |
| 20260506144503 | 20 | 210 | 8.0 | 27.4 | 0.00 | 0.00 | 0.00 | 67 | 1008.5 |
| 20260506143603 | 20 | 167 | 6.4 | 22.5 | 0.00 | 0.00 | 0.00 | 67 | 1008.5 |
| 20260506142703 | 20 | 172 | 4.8 | 22.5 | 0.00 | 0.00 | 0.00 | 68 | 1008.5 |
| 20260506141803 | 20 | 186 | 6.4 | 22.5 | 0.00 | 0.00 | 0.00 | 69 | 1008.5 |
| 20260506140903 | 20 | 180 | 8.0 | 22.5 | 0.00 | 0.00 | 0.00 | 68 | 1008.4 |
| 20260506140024 | 19 | 184 | 9.7 | 29.0 | 0.00 | 0.00 | 0.00 | 70 | 1008.2 |
| 20260506135403 | 19 | 184 | 6.4 | 20.9 | 0.00 | 0.00 | 0.00 | 71 | 1008.4 |
| 20260506134503 | 18 | 174 | 8.0 | 33.8 | 0.00 | 0.00 | 0.00 | 73 | 1008.4 |
| 20260506133603 | 18 | 205 | 8.0 | 25.7 | 0.00 | 0.00 | 0.00 | 74 | 1008.3 |
| 20260506132703 | 17 | 192 | 8.0 | 19.3 | 0.00 | 0.00 | 0.00 | 75 | 1008.4 |
| 20260506131803 | 17 | 199 | 4.8 | 17.7 | 0.00 | 0.00 | 0.00 | 79 | 1008.9 |
| 20260506130903 | 17 | 202 | 8.0 | 27.4 | 0.00 | 0.00 | 0.00 | 79 | 1009.0 |
| 20260506130004 | 16 | 194 | 8.0 | 17.7 | 0.00 | 0.00 | 0.00 | 79 | 1009.2 |
| 20260506125424 | 16 | 208 | 8.0 | 17.7 | 0.00 | 0.00 | 0.00 | 79 | 1009.1 |
| 20260506124503 | 16 | 219 | 3.2 | 17.7 | 0.00 | 0.00 | 0.00 | 79 | 1008.9 |
| 20260506123603 | 16 | 204 | 6.4 | 22.5 | 0.00 | 0.00 | 0.00 | 81 | 1009.0 |
| 20260506122704 | 16 | 209 | 4.8 | 19.3 | 0.00 | 0.00 | 0.00 | 81 | 1009.0 |
| 20260506121803 | 16 | 200 | 6.4 | 19.3 | 0.00 | 0.00 | 0.00 | 81 | 1009.2 |
| 20260506120004 | 15 | 194 | 6.4 | 25.7 | 0.00 | 0.00 | 0.00 | 83 | 1009.0 |
| 20260506115403 | 15 | 178 | 8.0 | 29.0 | 0.00 | 0.00 | 0.00 | 83 | 1009.0 |
| 20260506114503 | 15 | 193 | 6.4 | 16.1 | 0.00 | 0.00 | 0.00 | 84 | 1009.2 |
| 20260506113603 | 15 | 205 | 8.0 | 22.5 | 0.00 | 0.00 | 0.00 | 84 | 1009.3 |
| 20260506112703 | 15 | 201 | 8.0 | 35.4 | 0.00 | 0.00 | 0.00 | 83 | 1009.5 |
| 20260506111803 | 15 | 228 | 4.8 | 22.5 | 0.00 | 0.00 | 0.00 | 84 | 1009.7 |
| 20260506110903 | 15 | 165 | 4.8 | 17.7 | 0.00 | 0.00 | 0.00 | 85 | 1009.4 |
| 20260506105403 | 14 | 189 | 3.2 | 12.9 | 0.00 | 0.00 | 0.00 | 86 | 1009.2 |
| 20260506104503 | 14 | 174 | 1.6 | 11.3 | 0.00 | 0.00 | 0.00 | 86 | 1009.2 |
| 20260506103603 | 14 | 180 | 1.6 | 9.7 | 0.00 | 0.00 | 0.00 | 86 | 1009.2 |
| 20260506102703 | 14 | 194 | 3.2 | 12.9 | 0.00 | 0.00 | 0.00 | 86 | 1009.1 |
| 20260506101803 | 14 | 199 | 3.2 | 17.7 | 0.00 | 0.00 | 0.00 | 86 | 1009.3 |
| 20260506100903 | 14 | 206 | 4.8 | 17.7 | 0.00 | 0.00 | 0.00 | 86 | 1009.1 |
| 20260506100003 | 14 | 204 | 3.2 | 12.9 | 0.00 | 0.00 | 0.00 | 85 | 1009.2 |
| 20260506095403 | 14 | 206 | 3.2 | 14.5 | 0.00 | 0.00 | 0.00 | 85 | 1009.1 |
| 20260506093603 | 14 | 199 | 6.4 | 16.1 | 0.00 | 0.00 | 0.00 | 85 | 1009.1 |
| 20260506092703 | 14 | 207 | 3.2 | 12.9 | 0.00 | 0.00 | 0.00 | 85 | 1009.0 |
| 20260506091803 | 14 | 215 | 6.4 | 17.7 | 0.00 | 0.00 | 0.00 | 85 | 1009.1 |
| 20260506090903 | 14 | 195 | 3.2 | 19.3 | 0.00 | 0.00 | 0.00 | 85 | 1009.1 |
| 20260506090003 | 14 | 179 | 3.2 | 19.3 | 0.00 | 0.00 | 0.00 | 85 | 1009.1 |
| 20260506085403 | 14 | 180 | 1.6 | 12.9 | 0.00 | 0.00 | 0.00 | 85 | 1009.2 |
| 20260506084503 | 14 | 174 | 3.2 | 19.3 | 0.00 | 0.00 | 0.00 | 84 | 1009.2 |
| 20260506083603 | 14 | 215 | 3.2 | 14.5 | 0.00 | 0.00 | 0.00 | 84 | 1009.2 |
| 20260506082704 | 14 | 214 | 3.2 | 12.9 | 0.00 | 0.00 | 0.00 | 84 | 1009.2 |
| 20260506081803 | 14 | 190 | 4.8 | 17.7 | 0.00 | 0.00 | 0.00 | 84 | 1009.2 |
| 20260506080903 | 14 | 190 | 8.0 | 25.7 | 0.00 | 0.00 | 0.00 | 83 | 1009.2 |
| 20260506072724 | 15 | 192 | 6.4 | 19.3 | 0.00 | 0.00 | 0.00 | 81 | 1009.2 |
| 20260506071803 | 15 | 195 | 4.8 | 14.5 | 0.00 | 0.00 | 0.00 | 80 | 1009.2 |
| 20260506070904 | 15 | 173 | 6.4 | 22.5 | 0.00 | 0.00 | 0.00 | 80 | 1009.2 |
| 20260506061803 | 16 | 219 | 6.4 | 14.5 | 0.00 | 0.00 | 0.00 | 77 | 1008.9 |
| 20260506060903 | 16 | 223 | 9.7 | 29.0 | 0.00 | 0.00 | 0.00 | 76 | 1009.0 |
| 20260506050924 | 16 | 219 | 9.7 | 24.1 | 0.00 | 0.00 | 0.00 | 73 | 1009.1 |
| 20260506044503 | 16 | 200 | 8.0 | 30.6 | 0.00 | 0.00 | 0.00 | 72 | 1009.4 |
| 20260506043624 | 16 | 192 | 6.4 | 20.9 | 0.00 | 0.00 | 0.00 | 71 | 1009.5 |
| 20260506042703 | 16 | 194 | 6.4 | 20.9 | 0.00 | 0.00 | 0.00 | 70 | 1009.5 |
| 20260506041804 | 16 | 219 | 9.7 | 29.0 | 0.00 | 0.00 | 0.00 | 70 | 1009.5 |
| 20260506040903 | 16 | 216 | 9.7 | 29.0 | 0.00 | 0.00 | 0.00 | 70 | 1009.5 |
| 20260506040025 | 16 | 214 | 9.7 | 33.8 | 0.00 | 0.00 | 0.00 | 70 | 1009.5 |
| 20260506035424 | 16 | 211 | 9.7 | 33.8 | 0.00 | 0.00 | 0.00 | 69 | 1009.4 |
| 20260506034503 | 16 | 213 | 6.4 | 22.5 | 0.00 | 0.00 | 0.00 | 70 | 1009.4 |
| 20260506033624 | 16 | 191 | 6.4 | 20.9 | 0.00 | 0.00 | 0.00 | 70 | 1009.3 |
| 20260506032703 | 16 | 194 | 6.4 | 16.1 | 0.00 | 0.00 | 0.00 | 70 | 1009.3 |
| 20260506031803 | 16 | 213 | 4.8 | 17.7 | 0.00 | 0.00 | 0.00 | 70 | 1009.2 |
| 20260506030903 | 16 | 206 | 6.4 | 20.9 | 0.00 | 0.00 | 0.00 | 70 | 1009.1 |
| 20260506030003 | 16 | 226 | 4.8 | 19.3 | 0.00 | 0.00 | 0.00 | 70 | 1009.4 |
| 20260506025424 | 16 | 203 | 4.8 | 16.1 | 0.00 | 0.00 | 0.00 | 70 | 1009.4 |
| 20260506024503 | 16 | 208 | 6.4 | 17.7 | 0.00 | 0.00 | 0.00 | 70 | 1009.4 |
| 20260506023603 | 16 | 188 | 8.0 | 27.4 | 0.00 | 0.00 | 0.00 | 70 | 1009.4 |
| 20260506022703 | 16 | 192 | 8.0 | 27.4 | 0.00 | 0.00 | 0.00 | 70 | 1009.4 |
| 20260506021803 | 16 | 210 | 6.4 | 24.1 | 0.00 | 0.00 | 0.00 | 70 | 1009.4 |
| 20260506020903 | 16 | 187 | 8.0 | 17.7 | 0.00 | 0.00 | 0.00 | 69 | 1009.3 |
| 20260506020003 | 16 | 211 | 6.4 | 30.6 | 0.00 | 0.00 | 0.00 | 69 | 1009.3 |
| 20260506015424 | 16 | 193 | 4.8 | 16.1 | 0.00 | 0.00 | 0.00 | 69 | 1009.3 |
| 20260506014503 | 16 | 223 | 8.0 | 29.0 | 0.00 | 0.00 | 0.00 | 68 | 1009.3 |
| 20260506013603 | 16 | 204 | 6.4 | 24.1 | 0.00 | 0.00 | 0.00 | 67 | 1009.2 |
| 20260506012703 | 16 | 184 | 6.4 | 20.9 | 0.00 | 0.00 | 0.00 | 67 | 1009.2 |
| 20260506011803 | 16 | 203 | 8.0 | 32.2 | 0.00 | 0.00 | 0.00 | 66 | 1009.0 |
| 20260506010903 | 16 | 186 | 8.0 | 24.1 | 0.00 | 0.00 | 0.00 | 66 | 1008.7 |
| 20260506010003 | 17 | 203 | 6.4 | 22.5 | 0.00 | 0.00 | 0.00 | 65 | 1008.7 |
| 20260506005403 | 17 | 216 | 6.4 | 22.5 | 0.00 | 0.00 | 0.00 | 65 | 1008.5 |
| 20260506004504 | 17 | 213 | 6.4 | 22.5 | 0.00 | 0.00 | 0.00 | 65 | 1008.6 |
| 20260506003603 | 17 | 204 | 8.0 | 30.6 | 0.00 | 0.00 | 0.00 | 64 | 1008.5 |
| 20260506002703 | 17 | 218 | 11.3 | 25.7 | 0.00 | 0.00 | 0.00 | 63 | 1008.4 |
| 20260506001803 | 18 | 200 | 9.7 | 25.7 | 0.00 | 0.00 | 0.00 | 63 | 1008.1 |
| 20260506000903 | 18 | 190 | 9.7 | 24.1 | 0.00 | 0.00 | 0.00 | 62 | 1008.0 |
| 20260506000003 | 18 | 211 | 9.7 | 22.5 | 0.00 | 0.00 | 0.00 | 61 | 1008.0 |
| 20260505235403 | 18 | 189 | 8.0 | 22.5 | 0.00 | 0.00 | 0.00 | 61 | 1007.8 |
| 20260505234503 | 18 | 205 | 8.0 | 22.5 | 0.00 | 0.00 | 0.00 | 59 | 1007.7 |
| 20260505233603 | 19 | 206 | 8.0 | 35.4 | 0.00 | 0.00 | 0.00 | 58 | 1007.5 |
| 20260505232703 | 19 | 221 | 9.7 | 33.8 | 0.00 | 0.00 | 0.00 | 57 | 1007.6 |
| 20260505231803 | 20 | 200 | 8.0 | 19.3 | 0.00 | 0.00 | 0.00 | 56 | 1007.3 |